WC1Z Weather Reports


Display with metric or nautical units.
time (UTC)temp
F
wind
direction
speed
MPH
gust
MPH
rain 1hr
in
rain 24hr
in
rain mn
in
humidity
%
barometer
mb
20260509002700 71 145 4.0 6.0 0.00 0.00 0.01 87 1010.3
20260509002201 72 137 2.0 5.0 0.00 0.00 0.01 87 1010.5
20260509001700 72 155 4.0 6.0 0.00 0.00 0.01 86 1010.7
20260509001201 72 108 4.0 6.0 0.00 0.00 0.01 86 1010.8
20260509000701 72 106 5.0 6.0 0.00 0.00 0.01 85 1010.8
20260509000201 72 104 4.0 5.0 0.00 0.00 0.01 85 1010.8
20260508235701 72 109 5.0 7.0 0.00 0.00 0.01 85 1010.9
20260508235201 72 91 5.0 7.0 0.00 0.00 0.01 85 1010.9
20260508234701 72 112 1.0 3.0 0.00 0.00 0.01 85 1011.1
20260508234201 72 158 4.0 6.0 0.01 0.00 0.01 85 1011.1
20260508233701 72 154 4.0 5.0 0.01 0.00 0.01 85 1011.1
20260508233201 72 147 3.0 4.0 0.00 0.00 0.01 85 1011.2
20260508232703 72 108 2.0 3.0 0.00 0.00 0.01 85 1011.4
20260508232201 72 109 1.0 2.0 0.00 0.00 0.01 84 1011.4
20260508231700 72 107 3.0 4.0 0.00 0.00 0.01 84 1011.4
20260508231200 72 111 4.0 5.0 0.00 0.00 0.01 84 1011.3
20260508230701 72 88 2.0 3.0 0.00 0.00 0.01 83 1011.2
20260508230205 72 161 0.0 1.0 0.00 0.00 0.01 83 1011.2
20260508225701 72 115 2.0 4.0 0.00 0.00 0.01 83 1011.1
20260508225200 72 118 2.0 3.0 0.00 0.00 0.01 83 1011.0
20260508224701 72 168 2.0 5.0 0.00 0.00 0.01 83 1011.0
20260508224201 72 154 4.0 5.0 0.00 0.00 0.01 83 1011.0
20260508223700 73 129 2.0 4.0 0.00 0.00 0.01 83 1010.8
20260508223200 73 81 3.0 4.0 0.00 0.00 0.01 82 1010.8
20260508222702 73 114 6.0 9.0 0.00 0.00 0.01 81 1010.8
20260508222202 72 154 3.0 4.0 0.00 0.00 0.01 83 1010.8
20260508221703 72 129 3.0 4.0 0.00 0.00 0.01 82 1011.0
20260508221202 72 143 3.0 4.0 0.00 0.00 0.01 82 1011.0
20260508220700 72 127 2.0 4.0 0.00 0.00 0.01 82 1011.0
20260508220201 72 84 2.0 3.0 0.00 0.00 0.01 82 1011.0
20260508215702 72 167 2.0 4.0 0.00 0.00 0.01 82 1011.1
20260508215201 72 170 6.0 8.0 0.00 0.00 0.01 81 1011.1
20260508214702 72 169 5.0 8.0 0.00 0.00 0.01 80 1011.0
20260508214202 73 158 6.0 9.0 0.00 0.00 0.01 80 1011.1
20260508213701 73 151 4.0 8.0 0.00 0.00 0.01 80 1011.2
20260508213203 73 160 6.0 8.0 0.00 0.00 0.01 80 1011.2
20260508212703 73 176 5.0 9.0 0.00 0.00 0.01 79 1011.4
20260508212201 73 108 4.0 6.0 0.00 0.00 0.01 78 1011.2
20260508211703 73 164 4.0 6.0 0.00 0.00 0.01 77 1011.5
20260508211203 73 162 2.0 4.0 0.00 0.00 0.01 76 1011.6
20260508210702 73 148 3.0 5.0 0.00 0.00 0.01 76 1011.6
20260508210202 73 88 2.0 4.0 0.00 0.00 0.01 75 1011.6
20260508205703 73 92 3.0 6.0 0.00 0.00 0.01 74 1011.6
20260508205202 73 125 2.0 6.0 0.00 0.00 0.01 74 1011.6
20260508204703 73 93 2.0 5.0 0.00 0.00 0.01 73 1011.7
20260508204203 72 76 3.0 5.0 0.00 0.00 0.01 75 1011.6
20260508203702 72 161 7.0 9.0 0.00 0.00 0.01 74 1011.7
20260508203201 72 114 2.0 4.0 0.00 0.00 0.01 75 1011.7
20260508202704 72 104 4.0 8.0 0.00 0.00 0.01 74 1011.7
20260508202202 72 108 4.0 6.0 0.00 0.00 0.01 74 1011.7
20260508201701 72 154 5.0 8.0 0.00 0.00 0.01 73 1011.7
20260508201203 71 88 3.0 5.0 0.00 0.00 0.01 72 1011.7
20260508200702 71 144 4.0 7.0 0.00 0.00 0.01 75 1011.9
20260508200203 71 166 4.0 6.0 0.00 0.00 0.01 72 1011.8
20260508195702 71 91 3.0 6.0 0.00 0.00 0.01 72 1011.8
20260508195203 71 167 3.0 4.0 0.00 0.00 0.01 72 1011.8
20260508194702 70 112 4.0 5.0 0.00 0.00 0.01 73 1011.9
20260508194202 69 104 4.0 7.0 0.00 0.00 0.01 74 1011.9
20260508193703 69 106 4.0 7.0 0.00 0.00 0.01 73 1011.9
20260508193202 69 115 3.0 5.0 0.00 0.00 0.01 73 1012.0
20260508192703 69 101 4.0 6.0 0.00 0.00 0.01 72 1012.2
20260508192202 69 114 3.0 5.0 0.00 0.00 0.01 73 1012.3
20260508191703 69 148 4.0 7.0 0.00 0.00 0.01 74 1012.2
20260508191201 69 106 4.0 6.0 0.00 0.00 0.01 74 1012.3
20260508190700 69 60 4.0 5.0 0.00 0.00 0.01 74 1012.4
20260508190204 69 111 4.0 5.0 0.00 0.00 0.01 73 1012.5
20260508185702 68 146 2.0 4.0 0.00 0.00 0.01 74 1012.5
20260508185202 68 108 5.0 7.0 0.00 0.00 0.01 74 1012.5
20260508184701 67 89 5.0 9.0 0.00 0.00 0.01 75 1012.6
20260508184202 67 101 5.0 7.0 0.00 0.00 0.01 74 1012.7
20260508183704 67 97 4.0 6.0 0.00 0.00 0.01 74 1012.8
20260508183202 68 91 6.0 9.0 0.00 0.00 0.01 74 1012.8
20260508182702 67 95 6.0 8.0 0.00 0.00 0.01 75 1013.0
20260508182202 67 102 6.0 8.0 0.00 0.00 0.01 76 1013.0
20260508181702 67 172 7.0 10.0 0.00 0.00 0.01 75 1013.2
20260508181201 68 165 6.0 8.0 0.00 0.00 0.01 75 1013.2
20260508180701 68 161 6.0 9.0 0.00 0.00 0.01 76 1013.3
20260508180203 68 154 4.0 7.0 0.00 0.00 0.01 75 1013.3
20260508175702 67 85 4.0 6.0 0.00 0.00 0.01 75 1013.4
20260508175204 67 99 4.0 6.0 0.00 0.00 0.01 75 1013.6
20260508174702 67 130 2.0 4.0 0.00 0.00 0.01 75 1013.7
20260508174201 67 100 6.0 7.0 0.00 0.00 0.01 74 1013.7
20260508173702 67 142 4.0 7.0 0.00 0.00 0.01 74 1013.8
20260508173201 67 91 7.0 9.0 0.00 0.00 0.01 73 1013.8
20260508172701 67 138 4.0 9.0 0.00 0.00 0.01 75 1013.9
20260508172202 66 74 9.0 12.0 0.00 0.00 0.01 75 1013.9
20260508171702 65 55 5.0 8.0 0.00 0.00 0.01 76 1013.9
20260508171202 65 78 7.0 10.0 0.00 0.00 0.01 76 1014.0
20260508170704 65 92 7.0 9.0 0.00 0.00 0.01 77 1014.1
20260508170204 65 78 7.0 11.0 0.00 0.00 0.01 77 1014.1
20260508165701 65 70 6.0 9.0 0.00 0.00 0.01 79 1014.1
20260508165203 65 81 5.0 8.0 0.00 0.00 0.01 78 1014.3
20260508164703 64 83 5.0 7.0 0.00 0.00 0.01 80 1014.3
20260508164202 64 87 7.0 8.0 0.00 0.00 0.01 80 1014.5
20260508163703 64 116 3.0 4.0 0.00 0.00 0.01 82 1014.9
20260508163203 64 101 2.0 4.0 0.00 0.00 0.01 81 1015.0
20260508162701 64 50 5.0 7.0 0.00 0.00 0.01 82 1014.8
20260508162201 63 79 5.0 6.0 0.00 0.00 0.01 83 1014.8
20260508161701 63 117 5.0 7.0 0.00 0.00 0.01 83 1014.7
20260508161204 63 107 4.0 5.0 0.00 0.00 0.01 83 1014.7
20260508160701 63 84 7.0 10.0 0.00 0.00 0.01 84 1014.4
20260508160202 63 87 5.0 6.0 0.00 0.00 0.01 85 1014.5
20260508155701 63 79 6.0 7.0 0.00 0.00 0.01 85 1014.5
20260508155202 62 91 5.0 6.0 0.00 0.00 0.01 86 1014.7
20260508154702 62 65 6.0 7.0 0.00 0.00 0.01 86 1014.8
20260508154203 62 64 4.0 6.0 0.00 0.00 0.01 86 1015.0
20260508153702 62 82 4.0 5.0 0.00 0.00 0.01 87 1015.0
20260508153203 62 96 4.0 6.0 0.00 0.00 0.01 87 1015.2
20260508152702 62 102 5.0 7.0 0.00 0.00 0.01 88 1015.2
20260508152201 62 86 5.0 7.0 0.00 0.00 0.01 89 1015.2
20260508151702 62 92 4.0 6.0 0.01 0.00 0.01 91 1015.2
20260508151203 62 55 3.0 4.0 0.01 0.00 0.01 92 1015.3
20260508150703 62 79 3.0 4.0 0.01 0.00 0.01 91 1015.3
20260508150203 62 64 4.0 4.0 0.01 0.00 0.01 91 1015.6
20260508145701 62 49 1.0 2.0 0.01 0.00 0.01 91 1015.9
20260508145202 62 86 2.0 2.0 0.01 0.00 0.01 90 1015.9
20260508144702 62 196 2.0 3.0 0.01 0.00 0.01 90 1016.2
20260508144202 62 166 1.0 2.0 0.00 0.00 0.01 90 1016.0
20260508143702 62 116 2.0 2.0 0.01 0.00 0.00 90 1015.8
20260508143204 62 93 1.0 1.0 0.01 0.00 0.01 90 1015.7
20260508142702 62 98 2.0 2.0 0.01 0.00 0.01 90 1015.5
20260508142202 62 59 2.0 3.0 0.01 0.00 0.01 90 1015.4
20260508141703 62 123 2.0 2.0 0.00 0.00 0.00 90 1015.4
20260508141200 62 0 0.0 0.0 0.00 0.00 0.00 91 1015.6
20260508140702 62 93 1.0 2.0 0.00 0.00 0.00 91 1015.0
20260508140203 62 196 3.0 4.0 0.00 0.00 0.00 91 1014.9
20260508135702 62 328 1.0 2.0 0.00 0.00 0.00 90 1015.2
20260508135203 62 88 2.0 2.0 0.00 0.00 0.00 90 1014.9
20260508134700 62 105 3.0 4.0 0.00 0.00 0.00 90 1015.1
20260508134202 62 75 2.0 2.0 0.00 0.00 0.00 90 1015.0
20260508133704 62 100 3.0 4.0 0.00 0.00 0.00 90 1015.0
20260508133202 61 48 2.0 3.0 0.00 0.00 0.00 90 1015.1
20260508132703 61 95 3.0 4.0 0.00 0.00 0.00 90 1013.9
20260508132202 61 88 4.0 5.0 0.00 0.00 0.00 90 1014.2
20260508131701 61 82 3.0 4.0 0.00 0.00 0.00 90 1014.3
20260508131202 61 74 5.0 7.0 0.00 0.00 0.00 90 1014.3
20260508130704 61 92 4.0 4.0 0.00 0.00 0.00 91 1014.3
20260508130207 61 84 2.0 3.0 0.00 0.00 0.00 91 1014.2
20260508125703 61 91 3.0 4.0 0.00 0.00 0.00 91 1014.2
20260508125202 62 103 2.0 2.0 0.00 0.00 0.00 91 1014.3
20260508124700 62 103 2.0 2.0 0.00 0.00 0.00 91 1014.5
20260508124203 61 11 3.0 10.0 0.00 0.00 0.00 91 1014.7
20260508123702 61 89 4.0 10.0 0.00 0.00 0.00 91 1014.7
20260508123203 61 51 2.0 2.0 0.00 0.00 0.00 92 1014.7
20260508122702 61 43 2.0 2.0 0.00 0.00 0.00 92 1014.6
20260508122202 61 101 1.0 1.0 0.00 0.00 0.00 92 1014.4
20260508121702 61 342 0.0 1.0 0.00 0.00 0.00 93 1014.4
20260508121203 61 70 2.0 3.0 0.00 0.00 0.00 93 1014.2
20260508120703 61 72 1.0 1.0 0.00 0.00 0.00 93 1014.2
20260508120202 60 54 1.0 1.0 0.00 0.00 0.00 93 1014.1
20260508115702 60 68 3.0 4.0 0.00 0.00 0.00 93 1014.1
20260508115201 60 63 3.0 3.0 0.00 0.00 0.00 94 1014.1
20260508114702 60 54 1.0 2.0 0.00 0.00 0.00 94 1014.2
20260508114201 60 64 2.0 4.0 0.00 0.00 0.00 94 1014.3
20260508113703 60 28 2.0 2.0 0.00 0.00 0.00 94 1014.4
20260508113200 60 76 1.0 2.0 0.00 0.00 0.00 94 1014.6
20260508112701 60 29 1.0 2.0 0.00 0.00 0.00 94 1014.7
20260508112201 60 338 0.0 0.0 0.00 0.00 0.00 94 1014.7
20260508111703 61 336 0.0 1.0 0.00 0.00 0.00 94 1014.7
20260508111201 61 107 1.0 2.0 0.00 0.00 0.00 94 1014.7
20260508110701 61 96 1.0 2.0 0.00 0.00 0.00 94 1014.6
20260508110200 60 77 1.0 2.0 0.00 0.00 0.00 94 1014.8
20260508105702 60 88 1.0 1.0 0.00 0.00 0.00 94 1015.0
20260508105201 60 100 1.0 2.0 0.00 0.00 0.00 94 1015.1
20260508104700 60 139 1.0 1.0 0.00 0.00 0.00 94 1014.9
20260508104202 60 221 1.0 2.0 0.00 0.00 0.00 94 1015.0
20260508103701 60 259 1.0 2.0 0.00 0.00 0.00 94 1014.8
20260508103200 60 159 1.0 2.0 0.00 0.00 0.00 94 1014.7
20260508102702 60 77 0.0 0.0 0.00 0.00 0.00 94 1014.7
20260508102202 60 79 2.0 2.0 0.00 0.00 0.00 94 1014.5
20260508101707 60 16 2.0 4.0 0.00 0.00 0.00 94 1014.7
20260508101203 60 81 1.0 2.0 0.00 0.00 0.00 94 1014.8
20260508100701 60 39 2.0 2.0 0.00 0.00 0.00 94 1014.8
20260508100202 59 22 2.0 2.0 0.00 0.00 0.00 94 1014.8
20260508095703 59 350 1.0 2.0 0.00 0.00 0.00 94 1014.7
20260508095203 59 28 1.0 1.0 0.00 0.00 0.00 93 1014.5
20260508094701 59 75 1.0 2.0 0.00 0.00 0.00 93 1014.4
20260508094202 59 340 0.0 1.0 0.00 0.00 0.00 93 1014.4
20260508093703 59 111 0.0 1.0 0.00 0.00 0.00 93 1014.2
20260508093203 59 115 0.0 0.0 0.00 0.00 0.00 93 1014.2
20260508092702 59 0 0.0 0.0 0.00 0.00 0.00 93 1014.3
20260508092203 59 115 0.0 1.0 0.00 0.00 0.00 93 1014.3
20260508091701 59 109 1.0 1.0 0.00 0.00 0.00 93 1014.3
20260508091204 59 91 1.0 1.0 0.00 0.00 0.00 93 1014.4
20260508090702 59 72 2.0 2.0 0.00 0.00 0.00 93 1014.4
20260508090202 59 97 0.0 0.0 0.00 0.00 0.00 93 1014.4
20260508085704 59 160 1.0 1.0 0.00 0.00 0.00 93 1014.6
20260508085205 59 101 0.0 0.0 0.00 0.00 0.00 93 1014.6
20260508084702 59 28 0.0 0.0 0.00 0.00 0.00 93 1014.7
20260508084202 59 0 0.0 0.0 0.00 0.00 0.00 93 1014.6
20260508083701 59 0 0.0 0.0 0.00 0.00 0.00 93 1014.6
20260508083202 59 108 0.0 0.0 0.00 0.00 0.00 93 1014.7
20260508082703 59 117 1.0 2.0 0.00 0.00 0.00 93 1014.7
20260508082202 59 108 1.0 2.0 0.00 0.00 0.00 92 1014.7
20260508081703 59 117 0.0 0.0 0.00 0.00 0.00 92 1014.9
20260508081201 59 56 0.0 0.0 0.00 0.00 0.00 92 1015.0
20260508080701 59 100 1.0 1.0 0.00 0.00 0.00 92 1014.9
20260508080204 59 190 0.0 1.0 0.00 0.00 0.00 92 1014.9
20260508075702 59 222 2.0 2.0 0.00 0.00 0.00 92 1014.9
20260508075205 60 247 0.0 0.0 0.00 0.00 0.00 92 1014.8
20260508074702 60 62 0.0 1.0 0.00 0.00 0.00 92 1014.8
20260508074202 60 0 0.0 0.0 0.00 0.00 0.00 92 1014.8
20260508073704 60 0 0.0 0.0 0.00 0.00 0.00 92 1014.8
20260508073202 60 0 0.0 0.0 0.00 0.00 0.00 92 1014.7
20260508072700 60 102 0.0 1.0 0.00 0.00 0.00 91 1014.7
20260508072205 60 0 0.0 0.0 0.00 0.00 0.00 91 1014.8
20260508071701 60 85 0.0 1.0 0.00 0.00 0.00 91 1014.8
20260508071202 60 108 1.0 1.0 0.00 0.00 0.00 91 1014.7
20260508070702 60 193 0.0 0.0 0.00 0.00 0.00 91 1015.0
20260508070202 60 0 0.0 0.0 0.00 0.00 0.00 91 1014.9
20260508065701 60 0 0.0 0.0 0.00 0.00 0.00 91 1014.9
20260508065202 60 0 0.0 0.0 0.00 0.00 0.00 91 1015.1
20260508064703 60 0 0.0 0.0 0.00 0.00 0.00 90 1015.3
20260508064203 60 166 0.0 0.0 0.00 0.00 0.00 90 1015.0
20260508063703 60 0 0.0 0.0 0.00 0.00 0.00 90 1015.0
20260508063202 60 0 0.0 0.0 0.00 0.00 0.00 90 1015.2
20260508062701 61 0 0.0 0.0 0.00 0.00 0.00 89 1015.1
20260508062203 61 152 2.0 3.0 0.00 0.00 0.00 89 1015.0
20260508061702 61 345 0.0 1.0 0.00 0.00 0.00 89 1015.3
20260508061204 61 172 0.0 0.0 0.00 0.00 0.00 89 1015.3
20260508060704 61 124 1.0 2.0 0.00 0.00 0.00 88 1015.2
20260508060200 61 27 0.0 1.0 0.00 0.00 0.00 88 1015.5
20260508055703 61 0 0.0 0.0 0.00 0.00 0.00 87 1015.5
20260508055203 62 54 0.0 0.0 0.00 0.00 0.00 87 1015.3
20260508054702 62 191 1.0 2.0 0.00 0.00 0.00 86 1015.3
20260508054201 62 0 0.0 0.0 0.00 0.00 0.00 85 1015.3
20260508053703 62 313 0.0 1.0 0.00 0.00 0.00 84 1015.3
20260508053201 62 62 0.0 1.0 0.00 0.00 0.00 84 1014.9
20260508052701 62 151 1.0 1.0 0.00 0.00 0.00 84 1015.1
20260508052202 62 94 1.0 2.0 0.00 0.00 0.00 84 1015.0
20260508051701 62 89 4.0 4.0 0.00 0.00 0.00 85 1015.0
20260508051202 62 313 1.0 2.0 0.00 0.00 0.00 85 1015.5
20260508050701 62 106 2.0 2.0 0.00 0.00 0.00 85 1014.9
20260508050201 63 43 1.0 1.0 0.00 0.00 0.00 85 1015.2
20260508045701 63 106 3.0 3.0 0.00 0.00 0.00 84 1015.2
20260508045201 63 94 1.0 2.0 0.00 0.00 0.00 85 1015.7
20260508044701 63 298 2.0 3.0 0.00 0.00 0.00 84 1016.1
20260508044200 62 321 0.0 0.0 0.00 0.00 0.00 85 1015.5
20260508043701 62 356 2.0 3.0 0.00 0.00 0.00 85 1015.1
20260508043202 62 134 3.0 4.0 0.00 0.00 0.00 86 1014.6
20260508042700 62 59 1.0 2.0 0.00 0.00 0.00 86 1015.1
20260508042200 62 4 0.0 1.0 0.00 0.00 0.00 86 1015.2
20260508041700 62 23 2.0 2.0 0.00 0.00 0.00 86 1015.1
20260508041203 62 103 2.0 3.0 0.00 0.00 0.00 86 1015.0
20260508040702 62 86 3.0 4.0 0.00 0.00 0.00 88 1015.0
20260508040200 62 27 0.0 1.0 0.00 0.00 0.00 89 1015.3
20260508035703 62 53 2.0 2.0 0.00 0.00 0.00 89 1015.1
20260508035201 62 62 2.0 2.0 0.00 0.00 0.00 89 1015.4
20260508034701 62 102 2.0 2.0 0.00 0.00 0.00 89 1015.4
20260508034200 62 0 0.0 0.0 0.00 0.00 0.00 89 1015.8
20260508033701 62 0 0.0 0.0 0.00 0.00 0.00 89 1015.9
20260508033202 62 350 1.0 1.0 0.00 0.00 0.00 89 1016.1
20260508032702 62 45 1.0 2.0 0.00 0.00 0.00 89 1015.7
20260508032203 62 100 0.0 1.0 0.00 0.00 0.00 88 1015.6
20260508031702 62 153 3.0 3.0 0.00 0.00 0.00 88 1015.6
20260508031201 62 105 1.0 2.0 0.00 0.00 0.00 88 1015.6
20260508030702 62 7 1.0 2.0 0.00 0.00 0.00 89 1015.8
20260508030201 62 325 1.0 2.0 0.00 0.00 0.00 89 1015.9
20260508025701 62 0 0.0 0.0 0.00 0.00 0.00 88 1015.3
20260508025202 62 63 1.0 2.0 0.00 0.00 0.00 88 1015.4
20260508024701 62 0 0.0 0.0 0.00 0.00 0.00 87 1015.7
20260508024201 62 0 0.0 0.0 0.00 0.00 0.00 87 1015.4
20260508023702 63 0 0.0 0.0 0.00 0.00 0.00 86 1015.3
20260508023200 63 0 0.0 0.0 0.00 0.00 0.00 86 1015.4
20260508022703 63 262 1.0 2.0 0.00 0.00 0.00 85 1015.5
20260508022201 63 0 0.0 0.0 0.00 0.00 0.00 85 1015.2
20260508021700 63 97 3.0 4.0 0.00 0.00 0.00 86 1014.8
20260508021201 63 35 2.0 3.0 0.00 0.00 0.00 85 1015.1
20260508020701 63 52 2.0 2.0 0.00 0.00 0.00 84 1015.3
20260508020202 63 41 2.0 2.0 0.00 0.00 0.00 84 1015.6
20260508015700 63 114 1.0 2.0 0.00 0.00 0.00 84 1015.8
20260508015201 64 0 0.0 0.0 0.00 0.00 0.00 84 1016.0
20260508014701 64 222 2.0 2.0 0.00 0.00 0.00 83 1016.0
20260508014200 64 0 0.0 0.0 0.00 0.00 0.00 82 1015.8
20260508013701 64 323 0.0 1.0 0.00 0.00 0.00 82 1015.6
20260508013201 64 298 3.0 4.0 0.00 0.00 0.00 83 1015.5
20260508012700 63 8 2.0 3.0 0.00 0.00 0.00 84 1015.2
20260508012200 63 307 4.0 5.0 0.00 0.00 0.00 86 1015.2
20260508011704 63 52 3.0 6.0 0.00 0.00 0.00 86 1014.0
20260508011202 64 157 4.0 4.0 0.00 0.00 0.00 86 1014.2
20260508010700 64 134 1.0 2.0 0.00 0.00 0.00 86 1014.3
20260508010202 64 97 3.0 3.0 0.00 0.00 0.00 86 1014.4
20260508005701 64 55 2.0 2.0 0.00 0.00 0.00 86 1014.9
20260508005203 64 152 0.0 0.0 0.00 0.00 0.00 85 1015.3
20260508004702 64 241 1.0 1.0 0.00 0.00 0.00 85 1015.2
20260508004201 64 0 0.0 0.0 0.00 0.00 0.00 84 1015.1
20260508003702 64 358 1.0 2.0 0.00 0.00 0.00 84 1014.9
20260508003201 64 109 1.0 3.0 0.00 0.00 0.00 84 1014.7